Regional Weather Roundup
Issued by NWS

Home | Current Version | Previous Version | Text Only | Print | Product List | Glossary On
Versions: 1 2 3 4 5 6 7 8 9 10 11 12 13 14 15 16 17 18 19 20 21 22 23 24 25 26 27 28 29 30 31 32 33 34 35 36 37 38 39 40 41 42 43 44 45 46 47 48 49
000
ASPQ40 PGUM 281212
RWRPQ
WEATHER ROUNDUP FOR THE MARIANAS AND MICRONESIA
NATIONAL WEATHER SERVICE TIYAN GU
1000 PM CHST MON JUL 28 2014

GUZ001>004-281300-
MARIANA ISLANDS-

CITY           SKY/WX    TMP DP  RH WIND       PRES   REMARKS
GUAM AIRPORT   LGT RAIN  77  75  94 N6        29.86F
ANDERSEN AFB   HVY RAIN  73  72  94 NW13      29.87S
ROTA AIRPORT   PTCLDY    77  75  94 W8        29.86S
TINIAN AP      NOT AVBL
SAIPAN AP      PTCLDY    81  75  83 NW7       29.84F

$$

PMZ161-281300-
REPUBLIC OF PALAU-

CITY           SKY/WX    TMP DP  RH WIND       PRES   REMARKS
KOROR AP       CLOUDY    82  77  83 SW10G17   29.83R HX  91
KOROR WSO      CLOUDY    82  73  74 S14       29.82R

$$

PMZ171>174-281300-
FEDERATED STATES OF MICRONESIA-

CITY           SKY/WX    TMP DP  RH WIND       PRES   REMARKS
YAP AIRPORT    CLOUDY    82  77  83 SW14      29.81R HX  91
CHUUK AP       CLOUDY    79  75  89 W14       29.85R
POHNPEI AP     NOT AVBL
POHNPEI WSO    CLOUDY    79  75  89 SE3       29.90R
KOSRAE AP      NOT AVBL

$$

PMZ181-281300-
REPUBLIC OF THE MARSHALL ISLANDS-

CITY           SKY/WX    TMP DP  RH WIND       PRES   REMARKS
KWAJALEIN AP   CLEAR     82  73  74 NW3       29.87S
MAJURO AP      NOT AVBL
MAJURO WSO     LGT RAIN  79  77  94 E5        29.85F

$$



USA.gov is the U.S. government's official web portal to all federal, state and local government web resources and services.